Tracking 19176 objects as of 27-May-2018
HD Live streaming from Space Station
objects crossing your sky now

INTELSAT 4A-F4

Track INTELSAT 4A-F4 now!
INTELSAT 4A-F4 is classified as:


NORAD ID: 10024
Int'l Code: 1977-041A
Perigee: 35,986.1 km
Apogee: 36,071.2 km
Inclination: 14.1 °
Period: 1,448.1 minutes
Semi major axis: 42399 km
RCS: 2.3464 m2 (large)
Launch date: May 26, 1977
Source: International Telecommunications Satellite Organization (ITSO)
Launch site: AIR FORCE EASTERN TEST RANGE (AFETR)
aabbcc
Your satellite tracking list
Your tracking list is empty




NASA's NSSDC Master Catalog

Two Line Element Set (TLE):
1 10024U 77041A   18147.05744853 +.00000031 +00000-0 +00000-0 0  9997
2 10024 014.0549 337.3364 0010028 198.3591 331.6234 00.99439637017716
Source of the keplerian elements: AFSPC